User: anonymous   Login
Location: Unspecified
(0.0000°N, 0.0000°E)
Time: 00:55:18
(UTC+00:00)
Language:

LEMUR 2 ZACHARY - Orbit

View from above orbital plane
View from above orbital plane
View from above satellite
View from above satellite

Ground track
Ground track

The orbit is defined by the following mean orbital elements,

1 42845U          26145.06625892 +.00000000 +00000-0 +77209-3 0 00000
2 42845  97.3624 336.2468 0004506 105.6802 254.4946 15.48047556    04
Epoch (UTC): 25 May 2026 01:35:24
Eccentricity: 0.0004506
inclination: 97.3624°
perigee height: 419 km
apogee height: 426 km
right ascension of ascending node: 336.2468°
argument of perigee: 105.6802°
revolutions per day: 15.48047556
mean anomaly at epoch: 254.4946°

The dashed part of the orbit path shows where the satellite is in the earth's shadow,  

DLR